Aérodrome :
LOGIN :

S'inscrire | Disclaimer

   EN    FR    IT 

 










Légende :    VFR   VFR Marginal   IFR   IFR Intensif   IFR Très Intensif
Visi : 
Plafond : 
>= 8 km
>= 3000ft
5 à 8 km
1000 à 3000 ft
1500m à 5 km
500 à 1000 ft
800 à 1500m
200 à 500 ft
< 800m
< 200 ft
Symboles :   Orages  Brouillard  Fortes neiges  Fortes précipitations  Vent > 20 kt
SIGMETs :   Divers  Orages  Givrage  Turbulence  Onde Orograph.  Cendres Volcan.







- Altitude de l'aérodrome : 10 ft
- Code IATA : TTU


GMTN - Saniat R'Mel

DERNIER METAR :
  • 181600Z 08005KT 8000 SCT023 SCT093 BKN200 15/11 Q1015 NOSIG

METARs EXPIRÉS :
  • 181500Z 08008KT 8000 SCT023 SCT093 BKN200 15/11 Q1015 NOSIG
  • 181400Z 09008KT 9000 SCT016 SCT046 16/11 Q1016 NOSIG

TAF N/A
Pas de NOTAMs connus pour ce terrain.
1 SIGMET publié pour la FIR Casablanca (GMMM) :
 
Orages noyés dans la masse
GMMM SIGMET 05 VALID 181600/182000 GMMC
GMMM CASABLANCA FIR EMBD TS OBS N OF LINE N3545 W00554 - N3216 W0055 1 - N3143 W00820 - N3316 W00820 - N3301 W01106 TOP FL320 MOV NE NC=



MET'MAP, la Météo Aéronautique d'un coup d'oeil ! - Copyright ORBIFLY Décembre 2007 - Disclaimer

ORBIFLY MET'MAP TEAM :

Programmation & Développement : Alexandra Zaïnal
Conception & Développement : Baudouin d'Aumeries
Co-Programmation & Développement : Marc-Olivier Méhu
Soutien technique & logistique : Manuel Goepfert

Contact : metmap@orbifly.com




SOURCES & CREDITS :

   NOAA